STARLINK-4781 (53861 NORAD) Tracking and Keplerian Element Data

This shows tracking and keplerian element data for the satellite.

Feedback or suggestion? Click here.




ElementValue
Catalog53861
NameSTARLINK-4781
Epoch Orbit1053
Epoch Day325.33334491
Epoch Year2022
RAAN305.5538
Inclination53.214
Eccentricity0.0004231
Argument of Perigee4.0751
Mean Anonmoly66.0019
Mean Motion15.73177383
Decay Rate0.00050808
L11 53861U 22114AV 22325.33334491 .00050808 00000+0 36446-3 0 9993
L22 53861 53.2140 305.5538 0004231 4.0751 66.0019 15.73177383 10532



Live tracking and technical data element details for STARLINK-4781 (NORAD 53861). STARLINK-4781 can be tracked NOW for your location showing map with azimuth and elevation plus other details from your city location.







IsCatalogInMostPopularTable: catalog: 53861, numindb: 2
Update: records affected: 1



GetName: 53861 STARLINK-4781

Hit Count: updated at: Thu, 08 Dec 2022 09:47:36 GMT